• In Netherlands
  • List of Countries
  • For 7 days
  • Water Temperature
  • Satellite Maps
  • Weather Map
  • Weather Widgets
  • user-avatar
    Login

    Hourly Weather Shusha

    Today, 26 June, Monday

    Time Temperature Precipitation Wind Pressure Humidity
    00:00 +16°C° 0 mm 2 mps 660 mmHg 74%
    01:00 +15°C° 0 mm 1 mps 661 mmHg 77%
    02:00 +15°C° 0 mm 1 mps 661 mmHg 79%
    03:00 +14°C° 0 mm 1 mps 660 mmHg 82%
    04:00 +15°C° 0.1 mm 1 mps 661 mmHg 80%
    05:00 +18°C° 0.1 mm 1 mps 662 mmHg 78%
    06:00 +18°C° 0.1 mm 2 mps 662 mmHg 75%
    07:00 +19°C° 0 mm 2 mps 663 mmHg 70%
    08:00 +20°C° 0 mm 3 mps 663 mmHg 64%
    09:00 +22°C° 0 mm 3 mps 664 mmHg 57%
    10:00 +22°C° 0 mm 3 mps 664 mmHg 55%
    11:00 +24°C° 0 mm 3 mps 664 mmHg 53%
    12:00 +25°C° 0 mm 3 mps 663 mmHg 50%
    13:00 +25°C° 0 mm 3 mps 663 mmHg 50%
    14:00 +26°C° 0 mm 3 mps 663 mmHg 49%
    15:00 +26°C° 0 mm 4 mps 663 mmHg 48%
    16:00 +25°C° 0 mm 3 mps 663 mmHg 51%
    17:00 +24°C° 0 mm 3 mps 663 mmHg 54%
    18:00 +22°C° 0 mm 3 mps 663 mmHg 57%
    19:00 +20°C° 0 mm 3 mps 662 mmHg 65%
    20:00 +18°C° 0 mm 2 mps 662 mmHg 72%
    21:00 +16°C° 0 mm 1 mps 662 mmHg 80%
    22:00 +15°C° 0 mm 1 mps 662 mmHg 82%
    23:00 +15°C° 0 mm 1 mps 662 mmHg 83%

    Tomorrow, 27 June, Tuesday

    Time Temperature Precipitation Wind Pressure Humidity
    00:00 +15°C° 0 mm 1 mps 662 mmHg 85%
    01:00 +14°C° 0 mm 1 mps 661 mmHg 85%
    02:00 +14°C° 0 mm 1 mps 661 mmHg 86%
    03:00 +14°C° 0 mm 1 mps 661 mmHg 86%
    04:00 +15°C° 0 mm 1 mps 661 mmHg 82%
    05:00 +16°C° 0 mm 1 mps 662 mmHg 79%
    06:00 +16°C° 0 mm 0 mps 662 mmHg 75%
    07:00 +20°C° 0 mm 1 mps 662 mmHg 67%
    08:00 +22°C° 0 mm 1 mps 663 mmHg 60%
    09:00 +24°C° 0 mm 2 mps 663 mmHg 52%
    10:00 +25°C° 0 mm 2 mps 663 mmHg 49%
    11:00 +27°C° 0 mm 2 mps 662 mmHg 45%
    12:00 +28°C° 0 mm 2 mps 662 mmHg 42%
    13:00 +28°C° 0 mm 3 mps 662 mmHg 41%
    14:00 +29°C° 0 mm 3 mps 662 mmHg 41%
    15:00 +29°C° 0 mm 3 mps 661 mmHg 40%
    16:00 +29°C° 0 mm 2 mps 661 mmHg 43%
    17:00 +28°C° 0 mm 2 mps 660 mmHg 46%
    18:00 +27°C° 0 mm 2 mps 660 mmHg 49%
    19:00 +24°C° 0 mm 2 mps 660 mmHg 58%
    20:00 +21°C° 0 mm 1 mps 659 mmHg 67%
    21:00 +19°C° 0 mm 1 mps 659 mmHg 77%
    22:00 +18°C° 0 mm 1 mps 659 mmHg 78%
    23:00 +18°C° 0 mm 1 mps 659 mmHg 80%

    Day after tomorrow, 28 June, Wednesday

    Time Temperature Precipitation Wind Pressure Humidity
    00:00 +16°C° 0 mm 1 mps 659 mmHg 81%
    01:00 +16°C° 0 mm 1 mps 658 mmHg 82%
    02:00 +16°C° 0 mm 1 mps 658 mmHg 83%
    03:00 +15°C° 0 mm 1 mps 658 mmHg 85%
    04:00 +18°C° 0 mm 1 mps 659 mmHg 80%
    05:00 +19°C° 0 mm 1 mps 659 mmHg 76%
    06:00 +21°C° 0 mm 1 mps 660 mmHg 72%
    07:00 +23°C° 0 mm 1 mps 660 mmHg 64%
    08:00 +25°C° 0 mm 1 mps 660 mmHg 56%
    09:00 +27°C° 0 mm 2 mps 661 mmHg 47%
    10:00 +28°C° 0 mm 2 mps 661 mmHg 44%
    11:00 +29°C° 0 mm 2 mps 660 mmHg 41%
    12:00 +30°C° 0 mm 3 mps 660 mmHg 38%
    13:00 +31°C° 0.1 mm 3 mps 660 mmHg 38%
    14:00 +31°C° 0.1 mm 3 mps 660 mmHg 37%
    15:00 +31°C° 0.1 mm 3 mps 659 mmHg 37%
    16:00 +30°C° 0.1 mm 3 mps 659 mmHg 40%
    17:00 +30°C° 0.1 mm 2 mps 659 mmHg 43%
    18:00 +29°C° 0.1 mm 2 mps 658 mmHg 47%
    19:00 +26°C° 0.2 mm 2 mps 658 mmHg 54%
    20:00 +23°C° 0.2 mm 2 mps 658 mmHg 60%
    21:00 +21°C° 0.2 mm 1 mps 658 mmHg 67%
    22:00 +20°C° 0 mm 1 mps 658 mmHg 68%
    23:00 +20°C° 0 mm 1 mps 658 mmHg 69%

    29 June, Thursday

    Time Temperature Precipitation Wind Pressure Humidity
    00:00 +19°C° 0 mm 1 mps 658 mmHg 71%
    01:00 +19°C° 0 mm 1 mps 658 mmHg 72%
    02:00 +18°C° 0 mm 1 mps 658 mmHg 74%
    03:00 +18°C° 0 mm 1 mps 657 mmHg 75%
    04:00 +19°C° 0 mm 1 mps 658 mmHg 72%
    05:00 +21°C° 0 mm 1 mps 659 mmHg 68%
    06:00 +22°C° 0 mm 1 mps 659 mmHg 64%
    07:00 +24°C° 0 mm 1 mps 660 mmHg 56%
    08:00 +25°C° 0 mm 1 mps 660 mmHg 47%
    09:00 +27°C° 0 mm 2 mps 660 mmHg 39%
    10:00 +28°C° 0 mm 2 mps 660 mmHg 37%
    11:00 +29°C° 0 mm 3 mps 660 mmHg 34%
    12:00 +30°C° 0 mm 3 mps 660 mmHg 31%
    13:00 +30°C° 0.1 mm 3 mps 660 mmHg 30%
    14:00 +31°C° 0.1 mm 3 mps 659 mmHg 30%
    15:00 +31°C° 0.1 mm 3 mps 659 mmHg 29%
    16:00 +30°C° 0.1 mm 3 mps 659 mmHg 30%
    17:00 +29°C° 0.1 mm 3 mps 659 mmHg 32%
    18:00 +29°C° 0.1 mm 3 mps 659 mmHg 34%
    19:00 +26°C° 0 mm 2 mps 658 mmHg 39%
    20:00 +23°C° 0 mm 2 mps 658 mmHg 44%
    21:00 +19°C° 0 mm 1 mps 658 mmHg 50%
    22:00 +19°C° 0 mm 1 mps 658 mmHg 48%
    23:00 +19°C° 0 mm 1 mps 658 mmHg 47%

    30 June, Friday

    Time Temperature Precipitation Wind Pressure Humidity
    00:00 +18°C° 0 mm 2 mps 658 mmHg 45%
    01:00 +18°C° 0 mm 2 mps 658 mmHg 45%
    02:00 +17°C° 0 mm 2 mps 658 mmHg 45%
    03:00 +17°C° 0 mm 2 mps 658 mmHg 45%
    04:00 +18°C° 0 mm 2 mps 658 mmHg 44%
    05:00 +19°C° 0 mm 2 mps 658 mmHg 43%
    06:00 +20°C° 0 mm 2 mps 659 mmHg 41%
    07:00 +23°C° 0 mm 2 mps 660 mmHg 35%
    08:00 +25°C° 0 mm 2 mps 660 mmHg 29%
    09:00 +27°C° 0 mm 2 mps 661 mmHg 22%
    10:00 +28°C° 0 mm 2 mps 661 mmHg 22%
    11:00 +29°C° 0 mm 3 mps 661 mmHg 21%
    12:00 +30°C° 0 mm 3 mps 661 mmHg 21%
    13:00 +30°C° 0 mm 3 mps 660 mmHg 21%
    14:00 +31°C° 0 mm 3 mps 660 mmHg 21%
    15:00 +32°C° 0 mm 4 mps 660 mmHg 22%
    16:00 +30°C° 0 mm 4 mps 660 mmHg 25%
    17:00 +29°C° 0 mm 4 mps 660 mmHg 28%
    18:00 +28°C° 0 mm 4 mps 660 mmHg 31%
    19:00 +25°C° 0 mm 3 mps 660 mmHg 37%
    20:00 +21°C° 0 mm 2 mps 659 mmHg 44%
    21:00 +18°C° 0 mm 2 mps 659 mmHg 51%
    22:00 +18°C° 0 mm 2 mps 659 mmHg 50%
    23:00 +18°C° 0 mm 2 mps 659 mmHg 49%

    1 July, Saturday

    Time Temperature Precipitation Wind Pressure Humidity
    00:00 +18°C° 0 mm 2 mps 659 mmHg 48%
    01:00 +17°C° 0 mm 2 mps 659 mmHg 47%
    02:00 +17°C° 0 mm 2 mps 659 mmHg 46%
    03:00 +17°C° 0 mm 2 mps 659 mmHg 45%
    04:00 +17°C° 0 mm 2 mps 660 mmHg 44%
    05:00 +18°C° 0 mm 2 mps 660 mmHg 43%
    06:00 +19°C° 0 mm 2 mps 661 mmHg 43%
    07:00 +21°C° 0 mm 2 mps 662 mmHg 38%
    08:00 +25°C° 0 mm 1 mps 662 mmHg 33%
    09:00 +27°C° 0 mm 1 mps 663 mmHg 28%
    10:00 +28°C° 0 mm 2 mps 663 mmHg 27%
    11:00 +29°C° 0 mm 3 mps 663 mmHg 26%
    12:00 +30°C° 0 mm 3 mps 663 mmHg 26%
    13:00 +30°C° 0 mm 4 mps 662 mmHg 26%
    14:00 +30°C° 0 mm 4 mps 662 mmHg 26%
    15:00 +32°C° 0 mm 4 mps 662 mmHg 26%
    16:00 +30°C° 0 mm 4 mps 662 mmHg 29%
    17:00 +29°C° 0 mm 4 mps 662 mmHg 31%
    18:00 +28°C° 0 mm 4 mps 662 mmHg 34%
    19:00 +25°C° 0 mm 3 mps 661 mmHg 41%
    20:00 +21°C° 0 mm 2 mps 661 mmHg 48%
    21:00 +18°C° 0 mm 2 mps 661 mmHg 54%
    22:00 +18°C° 0 mm 2 mps 661 mmHg 53%
    23:00 +18°C° 0 mm 2 mps 661 mmHg 52%
    Show more